This demonstration page uses our WeatherBlox Daily Observations layout. Learn more.

Left ArrowRight Arrow

Hourly Observations for January 26, 2016

Temp ( °F °C ) Dew Point ( °F °C ) Humidity (%) Winds ( mph kmh ) Pressure ( in mb ) Visibility ( mi km ) Precip ( " mm )
12:53 am 00:53 Clear 36 2.2 30 -1.1 79 79 Calm 30.22 1023 10 16 0.00 0.00
1:53 am 01:53 Clear 35 1.7 29 -1.7 78 78 Calm 30.21 1023 10 16 0.00 0.00
2:53 am 02:53 Clear 35 1.7 30 -1.1 82 82 Calm 30.19 1022 10 16 0.00 0.00
3:53 am 03:53 Clear 35 1.7 29 -1.7 78 78 Calm 30.19 1022 10 16 0.00 0.00
4:53 am 04:53 Cloudy 36 2.2 30 -1.1 79 79 Calm 30.19 1022 10 16 0.00 0.00
5:53 am 05:53 Partly Cloudy 36 2.2 32 0 86 86 Calm 30.19 1022 10 16 0.00 0.00
6:53 am 06:53 Clear 37 2.8 31 -0.6 79 79 Calm 30.19 1023 10 16 0.00 0.00
7:53 am 07:53 Sunny 35 1.7 32 0 89 89 Calm 30.21 1023 10 16 0.00 0.00
8:53 am 08:53 Mostly Sunny 39 3.9 34 1.1 82 82 Calm 30.20 1023 10 16 0.00 0.00
9:53 am 09:53 Partly Cloudy 45 7.2 36 2.2 71 71 Calm 30.22 1023 10 16 0.00 0.00
10:53 am 10:53 Sunny 48 8.9 37 2.8 66 66 NE 5 7 30.19 1022 10 16 0.00 0.00
11:53 am 11:53 Mostly Cloudy 52 11.1 38 3.3 59 59 WNW 3 6 30.19 1022 10 16 0.00 0.00
12:53 pm 12:53 Cloudy 55 12.8 40 4.4 57 57 Calm 30.15 1021 10 16 0.00 0.00
1:53 pm 13:53 Cloudy 58 14.4 42 5.6 56 56 Calm 30.12 1020 10 16 0.00 0.00
2:53 pm 14:53 Cloudy 59 15 42 5.6 54 54 W 3 6 30.10 1019 10 16 0.00 0.00
3:53 pm 15:53 Cloudy 59 15 43 6.1 56 56 WSW 3 6 30.09 1019 10 16 0.00 0.00
4:53 pm 16:53 Cloudy with Light Rain 54 12.2 48 8.9 80 80 N 3 6 30.11 1020 6 10 0.01 0.25
5:53 pm 17:53 Cloudy with Light Rain 52 11.1 47 8.3 83 83 NNE 3 6 30.13 1020 10 16 0.01 0.25
6:53 pm 18:53 Cloudy with Light Rain 51 10.6 48 8.9 89 89 ENE 3 6 30.13 1020 10 16 0.05 1.27
7:53 pm 19:53 Cloudy with Light Rain 50 10 48 8.9 93 93 NNE 3 6 30.15 1021 3 5 0.03 0.76
8:53 pm 20:53 Cloudy with Light Rain 50 10 48 8.9 93 93 Calm 30.14 1021 3 5 0.01 0.25
9:53 pm 21:53 Cloudy with Mist and Fog 50 10 48 8.9 93 93 Calm 30.12 1020 4 6 0.00 0.03
9:56 pm 21:56 Cloudy with Mist and Fog 50 10 48 9 94 94 Calm 30.15 1021 2 3 0.00 0.00
10:01 pm 22:01 Cloudy with Fog 49 9.4 47 8.3 93 93 Calm 30.15 1021 1 1 0.00 0.00
10:09 pm 22:09 Cloudy with Fog 49 9.4 47 8.3 93 93 Calm 30.15 1021 1 1 0.00 0.00
10:18 pm 22:18 Cloudy with Mist and Fog 49 9.4 47 8.3 93 93 Calm 30.15 1021 1 1 0.00 0.00
10:26 pm 22:26 Cloudy with Mist and Fog 48 9 48 9 100 100 Calm 30.15 1021 1 2 0.00 0.00
10:53 pm 22:53 Cloudy with Light Rain 49 9.4 47 8.3 93 93 Calm 30.13 1020 1 1 0.01 0.25
11:11 pm 23:11 Cloudy with Light Rain 49 9.4 48 8.9 97 97 Calm 30.18 1022 2 2 0.02 0.51
11:23 pm 23:23 Cloudy with Rain 50 10 48 8.9 93 93 Calm 30.18 1022 3 5 0.04 1.02
11:53 pm 23:53 Cloudy with Light Rain 50 10 48 8.9 93 93 Calm 30.12 1020 4 6 0.07 1.78

Powered by AerisWeather